Regional Weather Roundup
Issued by NWS

Home | Current Version | Previous Version | Graphics & Text | Print | Product List | Glossary On
Versions: 1 2 3 4 5 6 7 8 9 10 11 12 13 14 15 16 17 18 19 20 21 22 23 24 25 26 27 28 29 30 31 32 33 34 35 36 37 38 39 40 41 42 43 44 45 46 47 48 49 50
000
ASUS43 KDTX 192310
RWRMI
MICHIGAN HOURLY REGIONAL WEATHER ROUNDUP
NATIONAL WEATHER SERVICE DETROIT/PONTIAC MI
700 PM EDT SAT AUG 19 2017

NOTE: "FAIR" INDICATES FEW OR NO CLOUDS BELOW 12,000 FEET WITH NO
SIGNIFICANT WEATHER AND/OR OBSTRUCTION TO VISIBILITY.

MIZ047>049-052>055-059>063-066>070-074>076-081>083-200000-
SOUTHEAST LOWER MICHIGAN

CITY           SKY/WX    TMP DP  RH WIND       PRES   REMARKS
ADRIAN         SUNNY     80  56  43 N5        29.96R
ALMA           MOSUNNY   78  56  46 W8        29.93R
ANN ARBOR      SUNNY     78  56  46 W7        29.94S
BAD AXE        SUNNY     74  58  56 W7        29.91S
CARO           SUNNY     75  59  57 SW7       29.91S
DETROIT CITY   SUNNY     78  54  43 NW7       29.93R
DETROIT        MOSUNNY   79  56  45 NW8       29.94S
FLINT          SUNNY     76  58  53 W6        29.93S
GROSSE ILE     PTSUNNY   78  57  47 NW9       29.93R
HILLSDALE      CLOUDY    77  54  44 NW7       29.96S
HOWELL         MOSUNNY   77  56  49 W6        29.95S

CITY           SKY/WX    TMP DP  RH WIND       PRES   REMARKS
JACKSON        SUNNY     79  55  43 NW5       29.95S
LAMBERTVILLE   SUNNY     78  56  47 NW5       29.94R
LANSING        SUNNY     78  56  46 W10       29.95R
LAPEER         FAIR      76  56  50 W6        29.94R
MASON          SUNNY     78  57  47 W7        29.95S
MONROE         SUNNY     78  58  50 NW5       29.93R
MT. CLEMENS    MOSUNNY   76  57  51 W5        29.91R
PONTIAC        MOSUNNY   76  57  51 W8        29.93S
PORT HOPE        N/A     76  59  55 VRB6      29.88S
PORT HURON     SUNNY     75  57  53 W3        29.92S
TRI CITIES     SUNNY     77  62  59 W10       29.92R
MIDLAND        FAIR      79  59  50 W6        29.90S
TROY           SUNNY     78  54  43 W7        29.95S
SAGINAW HB     MOSUNNY   77  59  53 W7        29.91R
$$
MIZ043>046-050>051-056>058-064>065-071>073-077>080-200000-
SOUTHWEST LOWER MICHIGAN

CITY           SKY/WX    TMP DP  RH WIND       PRES   REMARKS
BATTLE CREEK   SUNNY     78  58  49 NW6       29.97R
BENTON HARBOR  SUNNY     74  60  61 W3        29.97S
BIG RAPIDS     SUNNY     75  57  52 W7        29.94R
COLDWATER      SUNNY     79  51  36 W7        29.96S
FREMONT        FAIR      74  61  62 SW6       29.95R
HOLLAND        SUNNY     74  59  59 W6        29.97S
GRAND RAPIDS   MOSUNNY   76  61  59 W13       29.95S
IONIA          FAIR      78  58  49 W9        29.94R
KALAMAZOO      SUNNY     79  54  41 W8        29.96S
LUDINGTON      SUNNY     71  63  75 SW8       29.93R
MARSHALL       SUNNY     78  56  46 W3        29.95S
MOUNT PLEASANT SUNNY     79  56  43 W10       29.92R
MUSKEGON       SUNNY     74  63  68 SW8       29.96S
SOUTH HAVEN    SUNNY     74  62  65 W5        29.97S
$$
MIZ016>042-200000-
NORTHERN LOWER MICHIGAN

CITY           SKY/WX    TMP DP  RH WIND       PRES   REMARKS
ALPENA         SUNNY     71  62  73 E9        29.89R
BEAVER ISLAND  CLOUDY    69  65  88 SW9       29.89S
BELLAIRE       SUNNY     74  61  62 CALM      29.90R
CADILLAC       SUNNY     76  56  49 W8        29.93S
CHARLEVOIX     MOSUNNY   70  63  78 SW8       29.93R
FRANKFORT      SUNNY     72  67  85 SW5       29.91S
GAYLORD        SUNNY     73  56  54 W10       29.91R
GRAYLING       SUNNY     75  57  53 W9        29.92R
HARBOR SPRINGS SUNNY     70  63  77 W9        29.90R
HOUGHTON LAKE  MOSUNNY   75  59  57 W9        29.92S
MANISTEE       MOSUNNY   75  64  68 SW7       29.92R
OSCODA         SUNNY     70  62  75 S6        29.88S
PELLSTON       SUNNY     71  61  70 W9        29.90R
ROGERS CITY    SUNNY     69  62  77 N3        29.88S
TRAVERSE CITY  SUNNY     77  60  55 W7G16     29.89R
$$
MIZ007>008-015-200000-
EASTERN UPPER MICHIGAN

CITY           SKY/WX    TMP DP  RH WIND       PRES   REMARKS
KINROSS        MOSUNNY   70  61  73 W9        29.88R
MACKINAC ISLAN PTSUNNY   68  65  92 W10       29.89R
NEWBERRY       MOSUNNY   74  63  69 NW3       29.86S
S. S. MARIE    SUNNY     72  61  68 W8        29.86R
MUNISING         N/A     70  63  78 NW3       29.86R
$$
MIZ004>006-011>014-085-200000-
CENTRAL UPPER MICHIGAN

CITY           SKY/WX    TMP DP  RH WIND       PRES   REMARKS
MANISTIQUE     CLOUDY    67  61  81 SW5       29.87R
ESCANABA       MOSUNNY   78  66  66 S5        29.84S
MENOMINEE      SUNNY     80  60  50 W3        29.88R
SAWYER-GWINN   MOSUNNY   73  63  68 NE6       29.88R
$$
MIZ001>003-009>011-084-200000-
WESTERN UPPER MICHIGAN

CITY           SKY/WX    TMP DP  RH WIND       PRES   REMARKS
IRON MOUNTAIN  SUNNY     79  56  45 W10       29.87R
HOUGHTON         N/A    N/A N/A N/A MISG      29.85S
COPPER HARBOR    N/A     66  57  72 N7        29.83R
IRONWOOD       SUNNY     77  59  53 W5        29.89S
$$

ABBREVIATIONS USED IN REMARKS
   TC - TEMPERATURE IN CELSIUS
  WCI - WIND CHILL INDEX
   HX - HEAT INDEX
  VSB - VISIBILITY





USA.gov is the U.S. government's official web portal to all federal, state and local government web resources and services.